Location: Unspecified
(0.0000°N, 0.0000°E)
Time: 23:18:56
(UTC+00:00)

A-11 Canister half - Pass Details

Date: 13 February 2023
Orbit: 1526 x 1682 km, 47.3° (Epoch: 29 March)

Event Time Altitude Azimuth Distance (km) Brightness Sun altitude
Rises 22:32:47 0° 204° (SSW) 4,873 11.9 -61.6°
Enters shadow 22:35:52 - 197° (SSW) 3,990 11.4 -62.3°
Reaches altitude 10° 22:36:19 10° 195° (SSW) 3,863 - -62.4°
Maximum altitude 22:45:10 37° 131° (SE) 2,282 - -64.3°
Drops below altitude 10° 22:53:41 10° 67° (ENE) 3,744 - -66.1°
Sets 22:57:00 0° 59° (ENE) 4,708 - -66.8°
